Погода в Отарах

Россия / Республика Марий Эл     56°58′28″N   48°17′45″E
темп.,
°C
ветер,
м/с
пор.,
м/с
влажн.,
%
обл.,
%
осадки,
мм/ч
давл.,
гПа
погр.,
м
17 апреля, сб
сб1700:00+3всв411764 0.0 1028214
03:00+1всв410782 0.0 1029188
06:00+2всв410740 0.0 1030257
09:00+7всв68510 0.0 1030594
12:00+10всв56423 0.0 10291021
15:00+11св55415 0.0 10281206
18:00+9св35543 0.0 1027141
21:00+5св35700 0.0 102765
18 апреля, вс
вс1800:00+4св35760 0.0 102686
03:00+3св36830 0.0 102791
06:00+3св37813 0.0 1027167
09:00+8св576138 0.0 1027712
12:00+10всв675292 0.0 10271544
15:00+8всв8860100 0.0 10281186
18:00+7всв6856100 0.0 1028966
21:00+4всв7124996 0.0 1030560
19 апреля, пн
пн1900:00+2всв61257100 0.0 1031498
03:000всв6126696 0.0 1032390
06:000всв613640 0.0 1033499
09:00+4в811370 0.0 10341249
12:00+6в810330 0.0 10331639
15:00+7в79310 0.0 10331690
18:00+5в610390 0.0 1033581
21:00+2в512510 0.0 1034291
20 апреля, вт
вт2000:000в512570 0.0 1034255
03:00−1в511540 0.0 1035257
06:000в511490 0.0 1035340
09:00+6вюв68420 0.0 1034832
12:00+9вюв78310 0.0 10331401
15:00+9вюв78290 0.0 10311441
18:00+7вюв61040100 0.0 1030417
21:00+4вюв61550100 0.0 1029366
21 апреля, ср
ср2100:00+2вюв61456100 0.0 1029347
03:00+2юв71654100 0.0 1028409
06:00+3юв81752100 0.0 1026543
09:00+7юв91642100 0.0 1025843
12:00+10ююв101438100 0.0 10241123
15:00+7ююв91659100 0.3 1025929
18:00+5ююв81677100 0.5 1025817
21:00+5ююв81578100 0.5 1025712